Flag for U.S.A. Weather past 2 weeks in Salina, Kansas, U.S.A.

Now
30 °F

Light snow. Ice fog.


Feels Like: 25 °F
Forecast: 30 / 36 °F
Wind: 5 mph from East

Location: Salina Municipal Airport

Current Time: Dec 18, 2014 at 1:28:09 AM

Latest Report: Dec 18, 2014 at 12:53 AM


Visibility: 1 mi

Pressure: 30.22 "Hg

Humidity: 89%

Dew point: 27 °F

Location of SalinaLocation

Historic Weather in Salina — Graph

°F

Salina temperature yesterday

Maximum temperature yesterday: 30 °F (at 1:53 PM)
Minimum temperature yesterday: 25 °F (at 1:53 AM)
Average temperature yesterday: 28 °F

Past Weeks' High & Low Weather Summary

 TemperatureHumidityPressure
High62 °F (Dec 14, 12:53 PM)97% (Dec 5, 10:00 PM)30.60 "Hg (Dec 5, 10:00 PM)
Low25 °F (Dec 3, 2:53 AM)25% (Dec 3, 2:53 PM)29.52 "Hg (Dec 15, 4:53 AM)
Average41 °F77%30.19 "Hg
* Reported Dec 2 11:53 PM — Dec 17 11:53 PM, Salina, Weather by CustomWeather, © 2014

Note: Actual official high and low records may vary slightly from our data, if they occured in-between our weather recording intervals... More about our weather records

Advertising

Salina weather history for previous 24 hours

 ConditionsComfort  
Time TempWeatherWind HumidityBarometerVisibility
11:53 PM
Dec 17
30 °FLight snow. Ice fog.7 mph89%30.24 "Hg1 mi
10:53 PM29 °FLight snow. Ice fog.6 mph93%30.25 "Hg1 mi
10:03 PM29 °FLight snow. Ice fog.9 mph93%30.20 "Hg1 mi
8:53 PM29 °FLight snow. Ice fog.9 mph89%30.23 "Hg2 mi
8:02 PM29 °FLight snow. Ice fog.7 mph89%30.20 "Hg2 mi
7:53 PM29 °FLight snow. Ice fog.7 mph89%30.24 "Hg2 mi
6:53 PM30 °FMostly cloudy.9 mph79%30.25 "Hg10 mi
5:53 PM28 °FOvercast.8 mph78%30.24 "Hg10 mi
4:53 PM28 °FOvercast.7 mph78%30.25 "Hg10 mi
3:53 PM28 °FOvercast.10 mph78%30.23 "Hg10 mi
2:53 PM29 °FOvercast.8 mph75%30.24 "Hg10 mi
1:53 PM30 °FMostly cloudy.10 mph75%30.24 "Hg10 mi
12:53 PM29 °FOvercast.7 mph79%30.28 "Hg10 mi
11:53 AM28 °FOvercast.7 mph78%30.31 "Hg8 mi
10:53 AM28 °FOvercast.8 mph78%30.34 "Hg8 mi
9:53 AM27 °FLow clouds.8 mph81%30.34 "Hg10 mi
8:53 AM27 °FMostly cloudy.9 mph78%30.34 "Hg10 mi
7:53 AM26 °FMostly cloudy.6 mph81%30.34 "Hg10 mi
6:53 AM26 °FOvercast.8 mph77%30.35 "Hg10 mi
5:53 AM26 °FMostly cloudy.8 mph77%30.34 "Hg10 mi
4:53 AM26 °FMostly cloudy.6 mph77%30.34 "Hg10 mi
3:53 AM25 °FOvercast.7 mph81%30.35 "Hg10 mi
2:53 AM25 °FPassing clouds.6 mph78%30.37 "Hg10 mi
1:53 AM25 °FClear.6 mph78%30.37 "Hg10 mi
Weather by CustomWeather, © 2014

See weather overviewHow to use our weather pages